[Iaude] MPEC N108: 2024 NM2 [a=1.43,e=0.29,i=18.0,H=23.4]
    mpec at cfa.harvard.edu 
    mpec at cfa.harvard.edu
       
    Tue Jul  9 01:28:26 EDT 2024
    
    
  
M.P.E.C. 2024-N108                                 Issued 2024 July 9, 05:26 UT
     The Minor Planet Electronic Circulars contain information on unusual
         minor planets, routine data on comets and natural satellites,
         and occasional editorial announcements.  They are published
    on behalf of Division F of the International Astronomical Union by the
          Minor Planet Center, Smithsonian Astrophysical Observatory,
                          Cambridge, MA 02138, U.S.A.
			  
             Prepared using the Tamkin Foundation Computer Network
                              MPC at CFA.HARVARD.EDU
            URL https://www.minorplanetcenter.net/    ISSN 1523-6714
                                    2024 NM2                                    
Observations:
     K24N02M  C2024 07 02.36577416 21 23.414-07 24 58.21         22.74GVEN108F51
     K24N02M  C2024 07 02.37762816 21 21.132-07 25 45.45         21.62GVEN108F51
     K24N02M  C2024 07 02.38945316 21 18.869-07 26 32.33         20.92GVEN108F51
     K24N02M* C2024 07 06.36028016 09 36.232-12 01 52.39         21.67wXEN108F51
     K24N02M  C2024 07 06.37255116 09 33.874-12 02 45.25         21.77wXEN108F51
     K24N02M  C2024 07 06.39707516 09 29.154-12 04 31.31         22.01wXEN108F51
     K24N02M 3C2024 07 07.25688016 06 58.706-13 07 22.73         21.92GVEN108T14
     K24N02M 3C2024 07 07.25786016 06 58.515-13 07 27.06         21.49GVEN108T14
     K24N02M 3C2024 07 07.25883616 06 58.326-13 07 31.38         22.04GVEN108T14
     K24N02M KC2024 07 09.18970 16 01 15.50 -15 32 11.6                VEN108291
     K24N02M KC2024 07 09.19778 16 01 13.95 -15 32 48.6                VEN108291
     K24N02M KC2024 07 09.20588 16 01 12.42 -15 33 25.2                VEN108291
Observer details:
291 LPL/Spacewatch II.  Observer T. H. Bressi.  1.8-m f/2.7 reflector + CCD.
F51 Pan-STARRS 1, Haleakala.  Observers J. Herman, T. Lowe, P. Minguez, A.
    Schultz, I. Smith.  Measurers K. Chambers, T. de Boer, J. Fairlamb, H.
    Gao, M. Huber, C.-C. Lin, E. Magnier, Y. Ramanjooloo, R. Wainscoat, R.
    Weryk.  1.8-m Ritchey-Chretien + CCD.
T14 Canada-France-Hawaii Telescope, Maunakea.  Observers R. Wainscoat, H.
    Januszewski, H. Flewelling.  Measurers R. Weryk, R. Wainscoat.  3.6-m
    f/4.1 reflector + CCD.
Orbital elements:
2024 NM2                                                 Earth MOID = 0.1176 AU
Epoch 2024 Mar. 31.0 TT = JDT 2460400.5                 MPC                     
M 263.63582              (2000.0)            P               Q                  
n   0.57589913     Peri.  242.98032     +0.92538085     +0.22919826             
a   1.4307764      Node   102.48687     -0.12931790     +0.93958621             
e   0.2869751      Incl.   18.01136     -0.35629644     +0.25425561             
P   1.71           H   23.47          G   0.15           U   7                  
Residuals in seconds of arc
240702 F51  0.2+  0.4+    240706 F51  0.1+  0.0     240707 T14  0.1-  0.0
240702 F51  0.1-  0.1-    240706 F51  0.0   0.1+    240709 291  0.1-  0.0
240702 F51  0.2-  0.3-    240707 T14  0.1-  0.1-    240709 291  0.1-  0.1-
240706 F51  0.1-  0.3-    240707 T14  0.1-  0.1-    240709 291  0.3+  0.1+
Ephemeris:
2024 NM2                 a,e,i = 1.43, 0.29, 18                  q = 1.0202
Date    TT    R. A. (2000) Decl.     Delta      r    Elong.  Phase     V
2024 06 09    17 19 37.2 +08 57 32   0.3243  1.3016   148.0    24.4    22.7
...
2024 06 24    16 45 04.8 +00 36 34   0.2520  1.2375   148.1    25.7    22.1
...
2024 07 02    16 22 28.3 -07 00 39   0.2270  1.2043   142.3    31.1    22.0
...
2024 07 08    16 04 46.3 -14 02 03   0.2154  1.1801   135.5    37.1    22.0
2024 07 09    16 01 49.3 -15 17 14   0.2141  1.1762   134.3    38.2    22.0
2024 07 10    15 58 52.9 -16 33 31   0.2129  1.1722   133.0    39.4    22.0
...
2024 07 16    15 41 33.8 -24 26 01   0.2093  1.1492   125.0    46.4    22.1
...
2024 07 24    15 19 43.3 -34 58 37   0.2126  1.1204   114.4    55.7    22.4
...
2024 08 08    14 42 33.6 -52 28 22   0.2358  1.0738    98.3    69.1    22.9
A. U. Tomatic                (C) Copyright 2024 MPC           M.P.E.C. 2024-N108
    
    
More information about the Iaude
mailing list